Regional Weather Roundup
Issued by NWS

Home | Current Version | Previous Version | Text Only | Print | Product List | Glossary Off
Versions: 1 2 3 4 5 6 7 8 9 10 11 12 13 14 15 16 17 18 19 20 21 22 23 24 25 26 27 28 29 30 31 32 33 34 35 36 37 38 39 40 41 42 43 44 45 46 47 48 49 50

621
ASUS43 KOAX 201602
RWRNE

WEATHER ROUNDUP FOR NEBRASKA
NATIONAL WEATHER SERVICE OMAHA NE
1100 AM CDT THU JUL 20 2017

NOTES: SATELLITE DATA IS BEING USED TO AUGMENT CLOUD COVER ABOVE
       12000 FEET.
       "FAIR" INDICATES FEW OR NO CLOUDS BELOW 12,000 FEET WITH NO
       SIGNIFICANT WEATHER AND/OR OBSTRUCTIONS TO VISIBILITY.


NEZ001>004-019>022-054>056-201700-
NEBRASKA PANHANDLE

CITY           SKY/WX    TMP DP  RH WIND       PRES   REMARKS
SCOTTSBLUFF    CLOUDY    75  63  66 NW7       30.16S
ALLIANCE       PTSUNNY   74  64  71 NW5       30.14F
CHADRON        MOSUNNY   82  60  47 S9        30.10F
GORDON         FAIR      77  65  67 CALM      30.13S
KIMBALL        SUNNY     80  58  46 SE12      30.21F
SIDNEY         SUNNY     82  58  43 SE9       30.17F
$$

NEZ057>060-069>072-079>082-201700-
SOUTHWEST NEBRASKA

CITY           SKY/WX    TMP DP  RH WIND       PRES   REMARKS
NORTH PLATTE   CLOUDY    81  64  56 NE13      30.04S
IMPERIAL       SUNNY     85  60  42 E12       30.04F
LEXINGTON      MOSUNNY   83  67  58 E5        30.02F
MCCOOK         SUNNY     86  62  44 VRB3      30.01R
OGALLALA       CLOUDY    80  62  54 NE7       30.09R
$$

NEZ005>010-023>029-035>040-094-201700-
NORTH CENTRAL NEBRASKA

CITY           SKY/WX    TMP DP  RH WIND       PRES   REMARKS
AINSWORTH      CLOUDY    83  67  58 NE6       30.07S
BROKEN BOW     CLOUDY    81  67  62 E16G23    30.04F
O`NEILL        DRIZZLE   77  74  91 SW8       30.06R
ORD            PTSUNNY   84  67  56 N7        30.05R
THEDFORD       CLOUDY    79  69  70 NE7       30.10S
$$

NEZ041-046>049-061>064-073>077-083>087-201700-
SOUTH CENTRAL NEBRASKA

CITY           SKY/WX    TMP DP  RH WIND       PRES   REMARKS
GRAND ISLAND   CLOUDY    81  69  67 SE8       30.02S
AURORA         PTSUNNY   83  71  67 E6        30.01S
HASTINGS       CLOUDY    83  68  60 VRB3      30.03R
HEBRON         MOSUNNY   88  70  55 S8        30.00F HX  92
HOLDREGE       CLOUDY    81  64  57 S3        30.02R
KEARNEY        CLOUDY    82  68  62 E6        30.03S
YORK           PTSUNNY   82  68  61 CALM      30.01S
$$

NEZ011>018-030>034-042>045-201700-
NORTHEAST NEBRASKA

CITY           SKY/WX    TMP DP  RH WIND       PRES   REMARKS
NORFOLK        CLOUDY    87  70  56 SE3       29.99F HX  92
ALBION         CLOUDY    87  72  61 E8        30.01F HX  93
BLAIR          PTSUNNY   87  74  64 SW3       29.98S HX  95
FREMONT        MOSUNNY   88  73  59 CALM      29.99S HX  95
TEKAMAH        SUNNY     89  75  63 E5        29.96S HX  99
WAYNE          CLOUDY    87  80  79 CALM      29.98S HX 102
$$

NEZ050>053-065>068-078-088>093-201700-
SOUTHEAST NEBRASKA

CITY           SKY/WX    TMP DP  RH WIND       PRES   REMARKS
LINCOLN        CLOUDY    87  71  58 SW7       29.99F HX  93
OMAHA EPPLEY   PTSUNNY   92  69  47 VRB3      29.97R HX  97
BEATRICE       SUNNY     90  73  57 W9        30.00R HX  97
FALLS CITY     SUNNY     90  74  59 S7        29.99S HX  99
NEBRASKA CITY  SUNNY     85  76  72 SW7       30.00S HX  95
PLATTSMOUTH    MOSUNNY   87  72  61 S8        29.98S HX  92
$$

NEZ044-045-051>053-067-201700-
OMAHA AREA

CITY           SKY/WX    TMP DP  RH WIND       PRES   REMARKS
OMAHA EPPLEY   PTSUNNY   92  69  47 VRB3      29.97R HX  97
BLAIR          PTSUNNY   87  74  64 SW3       29.98S HX  95
FREMONT        MOSUNNY   88  73  59 CALM      29.99S HX  95
MILLARD        MOSUNNY   91  72  53 SW6       29.97S HX  99
OFFUTT AFB     MOSUNNY   87  72  60 SW3       29.97R HX  94
PLATTSMOUTH    MOSUNNY   87  72  61 S8        29.98S HX  92
WAHOO          FAIR      87  73  61 N3        29.98S HX  94
$$




USA.gov is the U.S. government's official web portal to all federal, state and local government web resources and services.